MCMWTC BRIDGEPORT, CA, CA

2:07 AM PDT on July 28, 2017 (GMT -0700)
MCMWTC BRIDGEPORT, CA

Weather History for KBAN - March, 2014

Change the Weather History Date:

Monday, March 3, 2014

  Actual Average (KTVL) Record (KTVL)
Temperature  
Mean Temperature 34 °F -  
Max Temperature 45 °F 40 °F 57 °F (1986)
Min Temperature 23 °F 21 °F 2 °F (2001)
Degree Days  
Heating Degree Days 31    
Moisture  
Dew Point 26 °F    
Average Humidity 68    
Maximum Humidity 86    
Minimum Humidity 43    
Precipitation  
Precipitation 0.07 in - - ()
Sea Level Pressure  
Sea Level Pressure 30.07 in    
Wind  
Wind Speed 4 mph (West)    
Max Wind Speed 17 mph    
Max Gust Speed 22 mph    
Visibility 10 miles    
Events Rain    
Averages and records for this station are not official NWS values.
T = Trace of Precipitation, MM = Missing Value Source: NWS Daily Summary

Daily Weather History Graph

Daily Weather History Graph

Search for Another Location

Airport or City:

Trip Planner

Search our weather history database for the weather conditions in past years. The results will help you decide how hot, cold, wet, or windy it might be!

Date:

Astronomy

Mar. 03, 2014 Rise Set
Actual Time 6:27 AM PST 5:53 PM PST
Civil Twilight 6:00 AM PST 6:19 PM PST
Nautical Twilight 5:29 AM PST 6:50 PM PST
Astronomical Twilight 4:59 AM PST 7:21 PM PST
Moon 7:41 AM PST (3/3) 8:58 PM PST (3/3)
Length of Visible Light 12h 19m
Length of Day
11h 26m
Waxing Crescent, 8% of the Moon is Illuminated
Mar 3
Waxing Crescent
Mar 8
First Quarter
Mar 16
Full
Mar 23
Last Quarter
Mar 30
New

Hourly Weather History & Observations

Time (PST) Temp. Windchill Dew Point Humidity Pressure Visibility Wind Dir Wind Speed Gust Speed Precip Events Conditions
12:52 AM 28.0 °F - 21.9 °F 78% 30.12 in 10.0 mi Calm Calm - N/A   Clear
1:52 AM 30.0 °F 24.1 °F 19.9 °F 66% 30.10 in 10.0 mi Variable 5.8 mph - N/A   Clear
2:52 AM 33.1 °F 25.5 °F 21.0 °F 61% 30.07 in 10.0 mi NNW 9.2 mph - N/A   Clear
3:52 AM 32.0 °F 23.0 °F 21.0 °F 64% 30.06 in 10.0 mi NNW 11.5 mph - N/A   Clear
4:52 AM 28.0 °F - 19.0 °F 69% 30.09 in 10.0 mi Calm Calm - N/A   Clear
5:52 AM 25.0 °F - 18.0 °F 75% 30.12 in 10.0 mi Calm Calm - N/A   Clear
6:52 AM 23.0 °F 18.4 °F 17.1 °F 78% 30.14 in 10.0 mi NW 3.5 mph - N/A   Clear
7:52 AM 25.0 °F - 19.9 °F 81% 30.14 in 10.0 mi Calm Calm - N/A   Clear
8:52 AM 30.9 °F 27.5 °F 21.9 °F 69% 30.13 in 10.0 mi SE 3.5 mph - N/A   Partly Cloudy
9:52 AM 34.0 °F - 24.1 °F 67% 30.11 in 10.0 mi Calm Calm - N/A   Mostly Cloudy
10:52 AM 43.0 °F 41.3 °F 21.9 °F 43% 30.06 in 10.0 mi SSE 3.5 mph - N/A   Overcast
11:52 AM 45.0 °F 39.7 °F 28.0 °F 52% 30.04 in 10.0 mi West 10.4 mph - N/A   Overcast
12:52 PM 44.1 °F 36.5 °F 28.9 °F 55% 30.07 in 10.0 mi West 17.3 mph 21.9 mph N/A   Overcast
1:52 PM 43.0 °F 40.3 °F 28.0 °F 56% 30.06 in 10.0 mi SSW 4.6 mph - N/A   Overcast
2:52 PM 42.1 °F 37.7 °F 28.0 °F 58% 30.04 in 10.0 mi SSW 6.9 mph - N/A   Overcast
3:52 PM 42.1 °F 37.7 °F 28.9 °F 60% 30.05 in 10.0 mi SW 6.9 mph - N/A   Overcast
4:52 PM 42.1 °F 38.4 °F 28.0 °F 58% 30.05 in 10.0 mi West 5.8 mph - N/A   Overcast
5:52 PM 41.0 °F - 28.9 °F 62% 30.07 in 10.0 mi Calm Calm - N/A   Overcast
6:52 PM 39.9 °F 35.1 °F 28.9 °F 65% 30.06 in 10.0 mi NW 6.9 mph - N/A   Overcast
7:52 PM 39.0 °F - 30.0 °F 70% 30.06 in 10.0 mi Calm Calm - N/A   Overcast
8:52 PM 37.9 °F 35.5 °F 32.0 °F 79% 30.04 in 10.0 mi Variable 3.5 mph - N/A   Overcast
9:48 PM 37.4 °F - 32.0 °F 81% 30.07 in 10.0 mi Calm Calm - 0.01 in   Overcast
9:52 PM 36.0 °F 33.3 °F 32.0 °F 86% 30.06 in 9.0 mi West 3.5 mph - 0.01 in   Overcast
10:18 PM 36.0 °F 32.1 °F 32.0 °F 86% 30.07 in 10.0 mi NW 4.6 mph - 0.01 in Rain Light Rain
10:52 PM 37.0 °F 31.6 °F 30.9 °F 79% 30.01 in 10.0 mi West 6.9 mph - 0.02 in   Overcast
11:52 PM 36.0 °F 31.1 °F 30.9 °F 82% 30.00 in 10.0 mi WNW 5.8 mph - 0.04 in Rain Light Rain